Terminal Aerodrome Forecast
Issued by NWS Dallas/Fort Worth, TX

Home | Current Version | Previous Version | Text Only | Print | Product List | Glossary On
Versions: 1 2 3 4 5 6 7 8 9 10 11 12 13 14 15 16 17 18 19 20 21 22 23 24 25 26 27 28
775
FTUS44 KFWD 302050 AAA
TAFDFW
TAF AMD
KDFW 302050Z 3021/3124 19008KT P6SM SCT070
     FM310100 17008KT P6SM SCT250
     FM311700 19010KT P6SM SCT070=

USA.gov is the U.S. government's official web portal to all federal, state and local government web resources and services.